Probability
0 0 0 0 0 0 0 0 0 0 0 0 0 0 0 0 0 0 0 0 0 0 0 0 0 0 0 0 0 0 0 0 0 0 0 0 0 0
0 0 0 0 0 0 0 0 0 0 0 0 0 0 0 0 0 0 0 0 0 0 0 0 0 0 0 0 0 0 0 0 0 0 0 0 0 0
0 0 0 0 0 0 0 0 0 0 0 0 0 0 0 0 0 0 0 0 0 0 0 0 0 0 0 0 0 0 0 0 0 0 0 0 0 0
0 0 0 0 0 0 0 0 0 0 0 0 0 0 0 0 0 0 0 0 0 0 0 0 0 0 0 0 0 0 0 0 0 0 0 0 0 0
0 0 0 0 0 0 0 0 0 0 0 0 0 0 0 0 0 0 0 0 0 0 0 0 0 0 0 0 0 0 0 0 0 0 0 0 0 0
0 0 0 0 0 0 0 0 0 0 0 0 0 0 0 0 0 0 0 0 0 0 0 0 0 0 0 0 0 0 0 0 0 0 0 0 0 0
0 0 0 0 0 0 0 0 0 0 0 0 0 0 0 0 0 0 0 0 0 0 0 0 0 0 0 0 0 0 0 0 0 0 0 0 0 0
0 0 0 0 0 0 0 0 0 0 0 0 0 0 0 0 0 0 0 0 0 0 0 0 0 0 0 0 0 0 0 0 0 0 0 0 0 0
0 0 0 0 0 0 0 0 0 0 0 0 0 0 0 0 0 0 0 0 0 0 0 0 0 0 0 0 0 0 0 0 0 0 0 0 0 0
0 0 0 0 0 0 0 0 0 0 0 0 0 0 0 0 0 0 0 0 0 0 0 0 0 0 0 0 0 0 0 0 0 0 0 0 0 0
0 0 0 0 0 0 0 0 0 0 0 0 0 0 0 0 0 0 0 0 0 0 0 0 0 0 0 0 0 0 0 0 0 0 0 0 0 0
0 0 0 0 0 0 0 0 0 0 0 0 0 0 0 0 0 0 0 0 0 0 0 0 0 0 0 0 0 0 0 0 0 0 0 0 0 0
0 0 0 0 0 0 0 0 0 0 0 0 0 0 0 0 0 0 0 0 0 0 0 0 0 0 0 0 0 0 0 0 0 0 0 0 0 0
0 0 0 0 0 0 0 0 0 0 0 0 0 0 0 0 0 0 0 0 0 0 0 0 0 0 0 0 0 0 0 0 0 0 0 0 0 0
0 0 0 0 0 0 0 0 0 0 0 0 0 0 0 0 0 0 0 0 0 0 0 0 0 0 0 0 0 0 0 0 0 0 0 0 0 0
0 0 0 0 0 0 0 0 0 0 0 0 0 0 0 0 0 0 0 0 0 0 0 0 0 0 0 0 0 0 0 0 0 0 0 0 0 0
0 0 0 0 0 0 0 0 0 0 0 0 0 0 0 0 0 0 0 0 0 0 0 0 0 0 0 0 0 0 0 0 0 0 0 0 0 0
0 0 0 0 0 0 0 0 0 0 0 0 0 0 0 0 0 0 0 0 0 0 0 0 0 0 0 0 0 0 0 0 0 0 0 0 0 0
0 0 0 0 0 0 0 0 0 0 0 0 0 0 0 0 0 0 0 0 0 0 0 0 0 0 0 0 0 0 0 0 0 0 0 0 0 0
0 0 0 0 0 0 0 0 0 0 0 0 0 0 0 0 0 0 0 0 0 0 0 0 0 0 0 0 0 0 0 0 0 0 0 0 0 0
0 0 0 0 0 0 0 0 0 0 0 0 0 0 0 0 0 0 0 0 0 0 0 0 0 0 0 0 0 0 0 0 0 0 0 0 0 0
0 0 0 0 0 0 0 0 0 0 0 0 0 0 0 0 0 0 0 0 0 0 0 0 0 0 0 0 0 0 0 0 0 0 0 0 0 0
0 0 0 0 0 0 0 0 0 0 0 0 0 0 0 0 0 0 0 0 0 0 0 0 0 0 0 0 0 0 0 0 0 0 0 0 0 0
Height
5705 5706 5707 5708 5708 5709 5709 5709 5709 5709 5710 5708 5707 5706 5704 5703 5702 5701 5700 5698 5697 5696 5695 5694 5692 5691 5690 5689 5687 5686 5684 5682 5681 5679 5678 5676 5675 5674
5694 5695 5695 5696 5696 5696 5696 5696 5695 5695 5696 5696 5694 5693 5691 5690 5689 5688 5687 5686 5685 5683 5682 5681 5679 5678 5677 5675 5674 5672 5670 5669 5667 5666 5664 5663 5662 5661
5682 5683 5683 5683 5683 5683 5682 5682 5682 5681 5681 5682 5680 5679 5678 5677 5676 5675 5674 5673 5671 5670 5668 5667 5665 5664 5662 5661 5660 5658 5656 5655 5654 5652 5651 5650 5648 5647
5670 5670 5670 5670 5670 5669 5669 5668 5668 5667 5667 5667 5667 5665 5664 5663 5662 5661 5660 5659 5658 5656 5655 5653 5651 5649 5648 5646 5645 5643 5642 5640 5639 5638 5637 5636 5634 5632
5657 5657 5657 5656 5656 5656 5655 5654 5654 5653 5652 5653 5652 5651 5650 5649 5648 5647 5646 5645 5644 5642 5640 5638 5636 5634 5633 5631 5629 5628 5627 5625 5624 5623 5621 5620 5619 5617
5644 5643 5643 5643 5642 5642 5641 5640 5639 5639 5638 5638 5638 5637 5636 5635 5634 5633 5632 5631 5630 5628 5626 5624 5622 5619 5617 5616 5614 5612 5611 5609 5608 5607 5606 5604 5603 5601
5630 5629 5629 5629 5628 5627 5627 5626 5625 5624 5624 5623 5623 5622 5622 5620 5619 5618 5617 5616 5615 5613 5610 5609 5607 5605 5602 5600 5598 5596 5594 5593 5592 5591 5589 5588 5587 5586
5616 5616 5616 5615 5614 5613 5612 5611 5610 5609 5609 5609 5608 5608 5607 5606 5605 5603 5602 5601 5601 5599 5596 5594 5591 5589 5587 5585 5583 5580 5578 5577 5576 5575 5573 5572 5571 5569
5603 5603 5602 5601 5600 5599 5598 5597 5596 5595 5594 5594 5594 5593 5592 5592 5590 5589 5587 5585 5584 5581 5579 5578 5575 5573 5571 5569 5567 5565 5563 5561 5559 5558 5557 5555 5554 5552
5590 5590 5589 5588 5587 5585 5585 5583 5582 5581 5581 5580 5580 5579 5577 5575 5573 5572 5570 5568 5567 5565 5562 5562 5560 5558 5556 5554 5551 5549 5547 5545 5543 5541 5539 5538 5537 5535
5578 5577 5576 5575 5574 5573 5571 5571 5569 5568 5566 5565 5564 5563 5561 5559 5557 5555 5554 5552 5551 5550 5546 5545 5544 5542 5541 5539 5536 5533 5531 5528 5526 5524 5522 5520 5519 5518
5566 5565 5564 5562 5561 5558 5557 5556 5555 5554 5552 5551 5549 5548 5546 5544 5542 5539 5537 5535 5534 5534 5531 5529 5528 5525 5526 5525 5521 5518 5515 5512 5510 5507 5505 5503 5501 5500
5554 5553 5551 5549 5547 5545 5543 5542 5540 5539 5538 5536 5535 5533 5531 5528 5526 5524 5521 5519 5518 5517 5515 5513 5511 5509 5507 5508 5507 5503 5499 5496 5494 5491 5488 5486 5484 5482
5541 5539 5537 5535 5533 5532 5530 5528 5526 5524 5523 5521 5520 5518 5515 5513 5511 5508 5506 5504 5502 5501 5498 5496 5495 5493 5491 5490 5489 5487 5484 5480 5477 5475 5473 5470 5468 5465
5527 5526 5524 5522 5520 5518 5516 5514 5512 5510 5508 5507 5505 5503 5500 5498 5496 5494 5491 5489 5487 5485 5483 5480 5478 5477 5475 5473 5472 5470 5467 5465 5462 5459 5457 5455 5452 5449
5514 5513 5511 5509 5507 5505 5503 5501 5498 5496 5494 5492 5490 5488 5486 5483 5481 5479 5477 5475 5473 5471 5468 5465 5462 5461 5459 5458 5455 5453 5451 5449 5447 5445 5443 5440 5437 5433
5500 5499 5497 5495 5494 5492 5489 5487 5485 5482 5480 5478 5476 5474 5471 5469 5467 5464 5463 5461 5459 5457 5454 5451 5448 5446 5445 5443 5441 5438 5436 5434 5432 5430 5428 5426 5423 5419
5487 5485 5484 5482 5480 5478 5476 5474 5471 5469 5466 5464 5462 5459 5457 5455 5453 5451 5449 5447 5445 5443 5440 5437 5435 5433 5432 5430 5427 5424 5422 5420 5418 5415 5413 5411 5409 5406
5473 5471 5470 5468 5466 5464 5462 5460 5457 5455 5452 5450 5448 5446 5443 5441 5439 5438 5435 5433 5431 5429 5427 5424 5421 5419 5418 5418 5416 5411 5408 5406 5404 5402 5399 5397 5395 5393
5459 5457 5456 5454 5452 5450 5448 5446 5443 5441 5438 5436 5434 5432 5430 5428 5426 5424 5422 5420 5418 5416 5414 5411 5408 5406 5405 5404 5403 5401 5396 5393 5391 5389 5387 5384 5383 5381
5445 5443 5442 5440 5438 5436 5434 5432 5429 5427 5425 5423 5421 5419 5417 5415 5414 5411 5409 5407 5405 5404 5402 5400 5397 5394 5392 5391 5390 5389 5386 5381 5378 5377 5375 5373 5372 5370
5432 5430 5428 5426 5424 5422 5420 5418 5416 5414 5412 5410 5408 5406 5405 5403 5401 5399 5397 5395 5394 5392 5390 5388 5386 5383 5381 5379 5378 5377 5375 5372 5368 5366 5363 5361 5360 5359
5418 5417 5415 5413 5411 5409 5407 5405 5403 5401 5399 5398 5396 5394 5393 5391 5389 5387 5385 5384 5382 5380 5379 5377 5375 5373 5370 5368 5366 5365 5363 5361 5359 5357 5355 5352 5350 5349
Wind_Speed
44 44 44 45 45 45 46 45 45 44 44 45 46 46 46 46 46 46 46 46 46 47 47 47 47 47 47 48 47 47 48 48 48 48 48 47 47 47
44 45 46 46 47 46 46 46 47 47 47 47 48 48 47 46 46 47 46 47 48 48 48 48 48 49 49 50 49 50 50 50 50 49 49 49 48 48
45 45 46 47 47 48 48 48 48 49 49 49 49 49 48 47 47 47 48 48 49 49 49 50 50 50 51 52 52 52 52 51 51 50 50 50 49 49
47 46 45 46 48 48 49 49 49 50 50 50 49 49 49 48 48 48 49 49 50 51 51 51 52 53 53 53 53 53 53 53 52 52 52 51 51 51
46 46 47 47 48 49 49 50 51 51 51 51 51 50 50 50 50 50 49 50 51 52 53 53 53 53 54 53 54 54 54 53 53 53 53 53 53 52
47 47 48 48 48 49 50 51 52 51 51 51 51 51 51 51 51 51 51 51 52 53 53 54 54 53 54 55 55 54 54 54 54 54 54 54 53 53
47 47 48 48 49 49 50 51 52 52 51 52 52 51 51 51 52 52 53 53 54 54 54 54 54 54 55 55 54 54 54 54 55 55 54 54 54 54
46 47 47 48 49 50 50 51 51 51 51 52 52 52 52 52 52 53 54 54 54 54 55 54 55 55 55 55 54 54 54 55 56 55 55 54 54 55
46 46 46 47 49 49 49 50 50 50 51 51 52 52 53 53 53 54 55 55 55 55 55 54 55 55 55 55 54 54 54 55 56 56 55 56 56 56
45 45 45 46 47 48 48 49 49 50 50 51 51 52 52 52 53 54 54 55 55 55 55 54 54 53 53 54 55 54 55 55 55 56 56 57 57 56
44 45 46 46 48 48 48 48 49 49 50 51 51 51 51 52 53 54 55 55 54 54 55 54 53 52 51 52 54 55 55 55 55 55 56 57 57 56
44 45 46 47 48 49 48 48 49 49 50 50 51 51 52 53 53 54 54 54 54 53 53 53 52 53 52 52 53 55 55 55 56 55 55 56 56 56
45 46 47 48 48 49 49 49 49 49 49 50 51 52 53 53 53 54 54 54 54 53 52 52 52 53 53 53 53 54 54 54 55 54 54 53 54 55
47 47 48 48 48 48 48 49 49 49 49 50 51 53 53 53 53 53 53 53 53 52 51 52 53 54 54 53 53 52 53 53 52 51 51 52 52 52
47 47 47 47 47 47 47 47 48 48 49 50 51 52 52 52 52 52 51 51 50 50 50 52 52 53 53 52 51 51 50 50 50 50 50 50 50 50
46 46 46 46 46 46 46 47 48 49 49 50 50 50 50 50 50 50 50 49 49 49 50 51 51 51 50 50 49 49 48 48 47 48 48 48 48 48
45 45 46 46 46 46 47 47 48 48 49 49 49 49 49 50 49 49 48 48 48 48 48 49 48 48 48 47 47 47 47 46 46 47 47 46 46 46
46 45 45 46 46 47 47 48 48 48 48 49 49 48 48 48 48 47 47 47 47 47 47 47 47 46 45 45 45 45 45 45 45 46 46 45 43 42
46 45 45 46 47 47 47 48 48 48 48 48 48 48 47 46 46 45 46 46 46 45 45 45 45 44 43 43 42 42 43 44 44 44 43 42 40 39
46 46 46 46 47 47 48 48 48 48 48 47 46 46 46 45 44 44 44 44 44 44 44 43 43 43 42 41 40 39 42 43 42 41 40 38 37 36
47 47 47 47 47 47 47 46 47 46 46 45 45 44 43 42 42 42 42 42 42 42 41 41 41 41 41 40 39 38 39 40 40 39 37 35 34 33
47 47 47 47 46 46 45 45 44 44 44 43 42 42 41 40 40 40 40 40 39 39 39 39 39 39 39 39 38 38 37 37 37 36 34 33 32 30
45 46 46 45 45 44 44 44 43 42 42 41 41 40 40 39 39 39 38 38 37 37 37 37 37 37 37 37 36 35 34 33 33 32 30 30 30 29
Wind_Direction
264 265 265 266 267 268 270 271 273 273 274 277 279 280 279 278 278 278 278 279 280 280 280 280 281 280 280 281 281 282 282 281 281 281 281 282 282 282
265 265 265 266 267 269 270 271 272 274 275 276 278 278 278 277 277 277 278 279 280 280 280 280 280 280 279 279 280 280 280 281 280 280 281 282 282 282
265 267 267 268 269 270 270 271 273 275 276 276 276 277 277 276 277 277 278 279 279 279 280 279 279 280 280 280 280 280 280 281 280 280 281 281 281 282
266 268 270 270 270 271 271 272 273 275 276 276 275 275 276 276 276 277 278 279 279 279 280 280 279 280 281 281 281 281 281 280 280 280 280 280 280 280
268 269 271 271 272 272 273 273 274 275 275 275 275 274 275 276 277 278 278 280 280 280 280 280 281 281 281 281 281 280 280 280 280 280 280 280 280 280
270 271 271 272 273 274 274 274 275 276 276 275 275 275 276 276 277 278 279 280 280 281 281 282 282 282 281 281 281 281 280 279 280 280 280 280 280 280
271 271 272 273 274 274 275 275 275 276 275 276 276 276 277 278 278 279 280 281 281 282 282 282 283 282 282 282 281 280 279 279 279 280 279 279 279 280
272 272 273 275 275 275 275 276 276 276 275 276 276 277 278 279 279 280 281 281 281 282 282 283 282 282 282 281 281 280 280 280 280 280 280 279 279 280
272 273 275 277 278 277 277 277 276 276 275 277 278 278 278 279 280 281 281 282 282 282 282 282 282 282 282 281 281 281 281 281 280 280 280 280 280 280
272 274 277 278 279 279 278 277 276 276 277 278 279 280 280 280 281 282 283 283 283 282 282 282 282 282 282 282 281 282 282 282 282 281 280 280 280 280
273 276 279 279 279 279 279 278 278 278 278 279 280 281 282 283 283 283 283 283 283 282 281 282 281 281 281 282 282 282 282 282 282 281 281 281 280 281
277 279 280 279 279 280 280 280 280 280 279 279 280 281 282 283 284 284 284 283 283 282 282 282 282 282 282 282 283 283 283 282 282 282 282 282 281 281
277 278 279 280 280 280 280 281 281 281 281 281 281 281 282 283 283 284 284 284 284 283 283 282 282 283 283 284 283 284 283 282 282 282 282 282 282 282
278 279 280 280 280 280 281 282 282 282 282 283 283 282 283 283 284 284 284 284 284 283 283 283 283 284 285 285 284 284 283 283 283 282 282 283 283 283
278 279 280 281 280 280 281 282 282 283 283 284 284 284 284 284 284 284 284 284 284 284 284 284 284 285 285 285 285 285 284 283 283 282 283 284 284 283
281 280 281 281 281 281 282 283 283 284 284 285 285 285 284 285 285 284 283 284 284 284 284 285 285 286 286 285 286 286 285 284 283 283 284 285 285 284
282 281 281 281 282 282 283 284 284 284 285 286 286 285 285 285 285 285 284 284 285 285 284 285 285 286 286 286 286 286 285 285 285 286 286 286 286 284
282 282 282 282 282 282 283 284 284 284 285 286 286 286 285 285 285 284 284 284 285 285 284 285 285 285 285 287 287 286 285 286 287 288 287 287 286 284
282 282 282 283 283 283 283 284 285 285 285 286 286 285 286 285 284 284 284 284 284 284 285 285 285 285 285 286 286 285 286 288 289 289 288 287 287 284
282 282 282 282 283 283 284 285 286 286 287 286 285 285 285 284 284 284 284 284 284 285 285 286 286 287 287 287 286 286 287 289 290 290 289 287 286 285
282 281 282 283 283 284 284 285 286 287 287 286 285 284 284 284 284 284 284 285 285 285 285 285 286 288 289 289 288 287 288 289 290 291 290 286 285 285
282 282 283 284 284 285 285 285 286 287 286 285 284 284 284 284 284 283 284 285 285 284 284 285 286 287 288 288 288 288 288 288 289 290 290 288 287 285
282 282 283 283 284 284 285 285 286 286 285 285 285 284 284 284 284 284 283 284 284 283 284 285 286 287 288 288 289 289 289 288 288 288 287 287 287 286